Theta_e
330 321 317 316 321 318 313 309 295 299 292 291 289 289 291 298 298 296 296 298 296 300 302 302 300 302 300 299 303 306 306 299 302 292 294 311 326 331 332 336 346 346 347 348 350 349 349 348 351 353 353 353 353 353 352 352 352 351 350 349 349 349 348 348 348 348 348 348 348 348 349 350 350 350 350 350 349 348 348 347 346 346 345 346 345 346 344 343 343 342 341 340 338 337 338 340 341
324 318 317 318 316 315 307 304 296 289 288 287 290 289 294 297 297 295 295 297 299 301 301 301 301 301 301 301 304 309 308 311 312 313 320 327 327 326 329 334 345 346 347 348 350 350 349 348 349 352 353 353 353 352 352 352 351 351 350 349 349 348 348 348 347 347 347 348 348 348 348 348 349 349 349 350 350 349 348 348 347 346 346 345 344 344 344 343 342 341 339 339 337 336 337 339 340
323 320 319 317 315 311 309 302 294 287 286 283 288 290 295 295 294 296 298 299 301 301 302 301 301 302 303 303 303 303 300 315 316 319 319 326 321 323 328 333 341 347 347 348 350 350 349 348 348 351 352 352 352 352 352 352 351 351 350 350 349 348 348 347 347 347 347 347 347 347 348 348 348 348 349 349 348 349 348 347 346 345 345 344 344 344 343 342 340 339 338 337 336 335 337 338 339
324 321 318 313 308 308 301 297 292 287 286 285 287 293 294 293 295 297 299 301 300 299 301 302 298 302 302 299 301 303 303 310 319 318 316 321 322 326 327 332 335 347 347 348 349 349 349 347 348 352 352 352 352 352 352 352 351 351 350 349 349 348 347 347 347 347 346 347 347 347 348 347 347 348 348 348 348 348 347 347 346 345 345 344 344 344 343 341 339 337 337 335 334 334 336 338 338
319 322 320 312 309 303 298 297 290 287 287 286 285 293 294 295 296 298 300 300 299 298 300 302 298 303 305 305 306 299 302 308 320 323 322 324 329 331 331 333 335 346 345 347 349 349 348 345 348 349 353 352 351 351 351 351 351 350 351 349 348 347 347 347 347 347 347 346 347 347 347 347 347 348 348 348 347 347 346 346 346 345 345 344 343 343 342 340 338 336 335 334 332 334 336 336 337
316 316 320 312 304 307 300 288 291 289 292 290 289 292 293 296 297 297 298 299 300 299 300 299 298 301 306 308 310 306 316 302 318 322 323 326 331 334 336 334 330 340 344 346 348 348 348 344 347 349 352 352 351 351 350 350 351 350 350 349 348 347 347 347 347 346 347 347 347 347 347 347 347 347 348 347 347 347 344 345 345 344 344 343 343 342 341 340 338 336 334 332 331 334 335 335 335
314 311 312 308 307 307 295 289 288 289 293 293 292 292 295 296 298 297 297 299 300 299 299 301 306 304 303 308 309 317 321 321 319 322 325 328 330 333 336 336 333 340 345 347 347 347 346 344 349 352 351 350 351 351 351 350 351 350 350 349 348 347 347 346 346 346 347 347 347 347 346 347 347 347 347 347 346 345 344 344 343 343 342 342 341 341 340 339 337 335 334 331 330 332 333 334 334
318 306 308 299 299 294 292 290 291 289 294 295 295 295 296 297 297 297 297 296 298 296 298 299 299 301 300 306 301 311 320 326 325 328 329 329 330 332 334 335 339 344 346 347 346 345 344 344 349 349 350 351 351 351 350 350 350 350 349 349 348 348 347 346 346 347 347 347 347 347 347 347 347 347 346 346 345 344 344 344 343 343 342 341 340 339 339 338 336 335 333 329 329 331 331 331 332
314 309 307 299 296 293 289 290 291 294 294 296 296 301 304 299 298 296 296 298 298 298 298 299 298 297 300 303 301 309 312 319 327 329 329 329 330 332 334 334 338 342 344 345 345 345 344 342 347 350 349 350 350 350 350 350 349 349 349 348 349 348 347 346 346 346 347 346 346 347 346 346 346 346 346 346 345 344 343 343 343 343 341 340 339 338 337 337 335 333 331 329 329 330 330 330 330
305 304 297 299 296 291 289 290 288 293 293 296 296 298 299 299 298 296 296 297 298 298 299 298 301 299 302 301 302 305 309 316 322 325 328 329 330 332 332 332 334 337 342 344 344 344 342 341 340 344 347 350 350 349 349 349 349 348 348 348 348 350 348 348 346 347 347 346 346 346 346 346 346 345 345 345 344 343 343 343 343 342 340 339 338 337 336 335 334 331 329 326 328 329 329 329 328
300 302 302 293 289 288 289 290 290 294 295 297 297 299 300 299 298 298 298 298 298 298 299 299 299 299 300 300 301 310 307 307 314 319 327 329 329 330 330 331 332 334 335 340 343 343 342 341 337 339 343 344 347 348 348 349 348 348 348 347 347 349 348 347 347 347 347 346 346 346 346 346 346 344 345 345 344 343 343 343 343 342 340 339 338 337 336 335 333 330 327 325 326 326 327 328 327
296 296 295 291 291 290 289 290 292 293 295 296 296 299 298 300 298 297 297 298 298 297 298 299 297 299 298 298 300 302 304 304 305 311 325 330 330 330 330 330 332 333 332 335 339 340 341 340 340 339 337 339 342 345 346 347 347 347 347 347 348 347 348 347 348 348 347 346 346 346 345 345 346 345 344 343 343 343 342 342 342 342 340 338 338 337 336 334 333 329 325 323 324 324 325 325 325
300 296 291 289 289 289 291 290 290 292 292 294 294 299 298 298 298 298 297 297 297 297 298 301 301 299 297 299 301 303 302 303 306 307 324 330 330 330 329 329 329 330 331 331 333 335 338 339 340 343 337 334 335 337 340 342 344 346 347 346 347 348 348 348 348 348 348 347 346 346 345 345 345 344 344 343 343 343 342 342 341 341 340 338 337 336 336 334 332 329 325 322 321 323 322 322 322
300 299 293 293 290 290 290 291 291 289 291 295 297 299 300 298 300 298 298 297 297 297 301 302 300 300 298 299 300 298 300 303 305 307 323 329 330 329 327 327 327 329 329 331 330 331 332 335 338 338 337 342 339 336 333 338 342 345 345 345 344 344 345 347 347 348 347 346 345 344 343 344 344 343 344 343 342 342 342 341 341 341 339 337 336 336 335 333 330 327 324 321 320 320 319 319 320
301 301 295 292 288 287 293 289 291 288 290 295 298 298 299 301 299 297 298 296 298 302 302 303 303 299 293 296 296 299 301 303 305 307 322 325 328 328 326 326 327 326 326 327 327 329 330 332 334 335 339 339 339 340 339 336 333 339 341 342 341 342 341 341 344 344 342 343 342 340 339 338 336 337 339 340 341 339 337 336 341 340 338 337 336 335 334 333 330 326 324 322 319 318 318 319 319
304 300 294 291 287 286 290 291 291 291 292 295 298 296 297 300 300 299 301 299 300 302 301 298 301 298 299 298 299 300 303 304 307 309 320 323 324 324 321 319 317 315 315 316 318 321 325 328 331 334 335 337 338 339 341 337 331 332 336 337 338 340 339 339 339 338 336 335 334 333 330 329 327 329 327 333 334 337 335 334 337 338 338 337 336 335 334 333 330 327 324 323 321 319 319 318 319
303 296 290 287 288 287 291 291 289 289 293 296 299 299 297 298 301 301 302 300 299 298 299 300 299 302 299 299 301 303 306 308 311 310 310 311 309 307 308 309 310 311 314 314 314 315 316 317 319 321 329 334 336 338 340 340 335 329 331 331 332 335 335 336 335 327 324 323 326 322 324 334 335 333 331 334 327 333 326 327 334 337 338 337 336 335 334 333 330 327 324 322 321 320 321 317 318
301 293 289 287 290 290 293 294 293 294 294 295 298 298 297 296 300 301 300 299 299 299 299 299 301 300 301 302 303 305 306 307 308 308 307 305 305 305 306 307 308 308 309 311 313 315 315 315 317 318 319 322 331 337 341 342 336 333 338 337 335 333 329 327 330 336 332 331 321 325 335 336 336 335 335 332 332 329 323 325 331 336 337 335 335 335 334 333 331 328 325 323 321 320 316 303 305
296 293 288 289 290 294 296 296 295 295 295 296 297 296 297 297 297 299 296 296 297 297 298 298 298 299 301 302 302 304 306 306 307 306 306 305 304 305 304 306 307 308 308 310 311 314 313 314 315 316 317 319 322 332 337 341 339 339 337 337 337 330 332 333 334 336 337 336 335 335 335 337 336 335 334 332 333 325 327 324 330 333 334 332 334 336 334 333 331 329 326 324 322 322 308 306 306
299 292 289 291 295 296 297 298 297 297 297 297 297 298 296 299 298 301 297 294 296 296 295 297 297 296 299 300 302 303 304 305 305 305 305 304 304 304 304 305 306 306 307 308 309 313 312 312 313 314 316 317 317 325 333 338 340 340 338 338 337 336 334 334 336 335 334 335 336 336 334 331 335 334 330 327 329 330 324 324 327 328 329 328 329 330 332 333 332 331 328 327 321 314 311 311 309
299 292 290 293 294 294 297 297 298 297 297 296 296 297 295 298 298 298 296 294 296 295 296 296 297 297 298 300 301 302 303 303 303 303 304 304 304 304 304 306 306 306 307 308 309 311 311 311 312 313 315 317 316 320 328 330 336 340 339 338 337 337 336 336 336 335 334 333 333 334 335 335 334 332 331 331 333 330 329 331 330 330 329 327 325 326 325 325 323 320 316 315 312 312 311 311 312
297 295 296 295 294 294 298 297 297 297 296 296 295 295 296 299 299 297 296 293 291 295 298 297 298 298 299 299 300 301 301 302 302 302 303 303 303 303 304 304 306 306 308 309 309 310 310 312 311 312 314 315 316 318 326 329 331 331 333 337 336 336 336 337 336 335 335 335 334 334 334 333 333 332 333 332 332 330 327 327 330 329 327 327 327 326 323 323 323 322 321 315 313 311 311 311 309
293 296 296 295 297 296 298 299 298 296 298 295 295 298 298 296 296 297 297 296 295 298 298 298 298 299 299 300 300 300 300 300 301 301 302 302 303 303 304 304 305 306 307 309 311 311 311 311 311 312 314 315 316 317 325 328 331 331 332 333 335 335 335 334 333 334 334 335 334 333 333 332 332 332 332 331 331 330 330 328 328 329 329 329 328 326 324 325 325 325 321 317 313 311 310 309 309
295 294 296 298 297 299 298 298 297 295 296 298 298 298 297 296 297 297 296 296 297 298 298 298 298 299 300 299 299 299 300 300 301 302 302 303 303 303 303 303 305 307 308 309 310 311 309 309 310 314 318 315 315 318 324 329 329 328 327 327 329 328 328 328 328 328 329 330 330 331 331 332 332 331 331 330 328 330 330 329 330 329 330 329 328 327 327 325 324 322 321 318 314 311 311 309 310
295 295 297 297 297 299 296 296 296 297 297 297 298 298 296 296 296 296 295 296 297 298 298 298 298 298 298 298 298 299 299 299 301 301 302 301 302 303 303 302 304 307 307 308 308 309 309 310 312 318 319 321 316 320 327 327 326 324 324 324 324 323 324 324 323 324 323 324 326 328 330 330 329 329 329 329 329 329 328 328 328 326 326 327 327 327 326 325 324 323 322 320 314 312 311 310 311
297 297 297 298 298 299 296 297 296 296 298 299 297 295 295 296 297 296 296 296 297 298 297 297 297 297 297 297 297 297 297 298 299 300 300 300 301 301 301 302 304 306 306 307 307 309 310 312 318 318 318 320 323 325 324 323 322 321 321 320 320 321 321 321 320 320 320 321 322 325 326 327 327 325 324 325 324 323 322 321 321 321 320 322 323 323 323 322 321 320 320 320 319 316 313 310 310
297 297 297 297 297 297 297 297 297 296 298 296 296 296 295 296 296 291 296 297 297 297 297 296 296 296 296 297 297 297 298 297 298 298 298 299 299 299 299 301 303 305 306 306 307 309 310 316 317 316 319 318 319 320 320 320 319 318 318 318 317 317 317 317 317 317 318 319 320 321 323 324 324 323 322 321 320 320 319 319 319 320 319 320 321 321 320 319 318 319 319 319 318 317 315 314 314
298 297 296 296 296 296 297 296 296 296 297 295 296 295 295 294 295 293 295 297 297 296 296 296 295 295 296 296 296 296 297 297 296 297 297 297 297 297 299 301 302 304 304 305 307 309 314 314 314 314 316 316 316 316 317 318 317 316 315 314 313 312 312 312 312 312 312 314 316 318 320 320 320 320 319 318 318 318 318 317 317 317 318 319 319 318 318 319 318 317 318 317 317 317 316 315 315
298 297 294 293 295 296 296 296 297 297 297 296 297 295 292 293 292 293 296 297 297 296 295 295 295 295 295 295 295 295 295 296 295 295 296 297 297 298 299 301 302 302 305 306 307 310 311 312 312 312 313 314 314 314 314 314 314 313 312 311 310 309 308 307 307 307 308 309 310 312 313 317 319 318 317 315 313 315 316 315 315 314 315 316 316 315 315 316 316 316 316 316 316 315 314 312 312
299 297 293 294 291 292 296 298 297 296 297 295 297 287 287 291 294 294 296 296 296 295 294 294 294 295 294 294 294 295 295 295 295 295 295 296 297 298 299 301 302 303 304 305 307 309 310 310 311 310 310 310 310 310 310 310 309 309 309 308 307 307 305 305 305 305 305 306 307 308 309 310 312 314 315 314 313 312 312 312 312 312 313 313 313 313 312 312 311 310 312 314 311 311 308 307 306
293 294 294 289 289 287 294 296 295 296 296 295 296 287 287 290 293 294 296 296 295 294 294 294 294 294 294 294 294 294 294 294 295 296 296 296 297 298 299 301 302 303 304 305 306 308 307 308 308 307 307 307 307 307 307 306 307 306 305 305 305 304 303 303 304 304 304 305 305 306 307 307 308 308 308 307 306 305 305 306 308 310 311 311 311 310 308 307 306 306 308 308 305 304 304 302 302
293 290 285 288 288 287 293 295 296 295 295 295 295 287 290 292 292 294 295 295 295 294 294 294 294 294 294 294 294 293 294 294 295 295 296 296 296 298 300 301 303 303 303 305 306 308 306 307 307 306 306 305 305 305 305 305 304 303 302 303 301 301 300 300 300 301 302 303 303 304 305 305 306 306 306 305 303 303 302 302 303 304 305 306 307 308 307 305 303 302 302 303 301 300 300 299 299
291 290 284 288 287 288 291 295 295 294 293 295 295 287 289 291 292 294 294 295 294 293 293 293 294 294 295 294 294 293 293 293 293 295 295 296 297 298 300 301 302 303 304 305 306 306 305 305 305 306 305 304 304 304 303 302 301 300 300 299 299 299 298 298 298 298 298 299 300 301 303 304 304 304 304 304 303 302 301 301 301 301 302 302 302 302 303 305 304 301 300 300 300 298 297 296 297
287 289 288 288 289 288 288 292 295 294 295 290 292 290 289 291 292 294 294 295 294 293 294 294 294 294 294 294 294 293 293 292 292 293 295 295 296 299 300 302 302 304 304 306 306 305 305 304 304 305 305 303 302 303 304 300 300 299 298 298 297 297 296 296 296 296 296 296 297 297 298 300 301 302 303 303 302 301 300 300 299 299 299 299 298 298 298 300 303 301 298 297 296 295 294 294 294
284 289 287 289 290 290 291 290 292 293 293 291 290 289 291 292 291 293 294 295 294 294 294 294 293 293 293 293 293 293 293 292 292 293 295 296 296 299 300 301 303 303 304 306 306 306 305 305 304 303 304 302 301 301 300 299 299 298 297 296 295 294 294 294 294 294 294 294 294 295 296 296 296 298 298 299 298 297 296 296 296 296 296 296 295 295 295 297 299 300 297 295 295 293 292 291 292
291 290 288 288 289 288 290 292 294 295 291 291 289 289 291 293 292 292 293 294 294 294 293 292 293 293 293 293 293 293 292 291 293 294 295 295 295 297 299 301 302 303 304 304 305 305 305 305 305 304 303 304 303 302 301 299 298 297 295 294 293 293 293 292 292 292 292 292 293 293 293 293 294 294 294 295 294 293 292 292 292 294 294 293 292 291 291 292 293 296 296 294 291 290 290 290 290
293 292 291 290 289 289 292 292 294 293 292 290 291 291 290 291 292 293 294 293 293 292 292 293 293 292 293 292 293 293 292 292 293 294 295 295 296 297 299 301 301 302 303 304 303 302 303 303 302 300 301 302 301 300 299 298 296 295 294 293 291 291 291 291 290 290 291 291 291 292 292 292 292 292 292 292 291 292 291 290 290 290 290 290 290 289 289 289 290 291 292 293 291 288 288 289 289
292 291 289 288 289 289 291 293 294 293 292 287 290 290 291 293 293 293 292 292 292 293 293 292 292 292 293 292 292 292 292 292 293 293 294 294 295 297 300 301 300 299 300 303 302 301 300 300 299 299 299 298 297 296 296 295 295 294 292 291 290 290 289 288 288 289 289 290 290 290 290 290 291 291 291 290 290 290 289 289 289 288 288 289 289 289 289 290 288 289 289 288 289 288 286 287 288
292 290 290 288 288 290 292 293 293 293 293 289 288 290 292 293 294 293 292 293 294 295 295 294 294 292 292 292 292 291 291 291 292 293 293 294 295 297 299 300 300 300 300 301 302 300 298 298 297 297 297 296 296 296 295 294 294 293 292 290 290 288 289 289 288 289 289 289 289 289 289 289 290 289 289 290 289 288 288 288 288 288 288 288 288 287 288 287 287 287 287 287 286 286 286 288 287
290 288 287 287 287 291 285 289 291 293 292 288 289 289 291 294 295 294 293 294 293 293 294 293 293 293 292 293 293 291 291 290 291 292 292 293 294 295 297 298 298 299 298 299 301 299 298 296 295 295 295 295 294 294 293 292 291 291 290 290 289 288 287 288 288 288 288 288 287 288 288 288 289 288 289 288 288 288 288 287 287 288 287 288 287 287 287 286 287 286 286 287 286 284 284 284 286
289 290 288 287 289 289 290 289 291 291 291 292 290 289 290 292 293 295 293 291 291 293 293 292 292 293 293 293 292 292 291 291 291 291 292 292 292 294 296 297 298 297 297 298 299 298 296 295 295 294 294 294 293 293 292 291 290 289 289 288 288 287 286 286 286 286 286 287 287 287 287 287 288 288 288 288 288 287 287 287 287 287 287 287 287 286 286 286 286 286 286 286 285 283 283 283 284
288 289 292 291 291 291 290 292 292 285 285 289 290 282 282 286 291 293 290 290 290 290 291 291 291 291 292 292 291 292 292 292 292 292 292 292 293 294 295 296 297 296 296 297 298 297 295 294 294 294 294 293 292 292 291 291 290 288 287 286 284 284 283 283 283 283 284 285 285 286 287 287 287 287 287 287 287 287 287 287 287 287 286 286 287 286 286 286 285 285 285 285 285 284 283 283 282
287 288 292 293 292 291 291 290 290 284 283 288 291 286 282 285 290 291 287 288 290 289 290 291 289 290 291 291 291 291 291 291 291 292 292 292 292 293 295 295 296 295 295 296 297 296 295 294 294 294 293 293 293 292 291 291 289 288 286 285 285 284 283 283 284 284 285 285 286 286 286 286 286 286 286 286 286 286 286 286 286 286 286 286 286 286 285 284 285 285 285 285 284 285 284 282 282
285 289 294 293 291 290 290 290 289 285 286 289 289 286 283 286 291 295 293 290 289 289 289 289 290 290 290 290 291 291 291 291 291 291 292 291 292 293 294 295 295 294 295 295 294 294 293 293 293 292 292 292 292 291 290 290 288 287 286 285 285 284 284 283 284 284 285 285 285 285 285 286 286 286 286 285 286 286 286 285 285 285 285 285 285 284 284 284 284 285 285 284 284 284 283 282 281
287 293 293 292 292 290 290 290 287 285 286 284 285 287 284 283 286 288 291 288 288 288 290 290 290 290 289 289 290 291 291 291 291 291 291 291 292 293 293 293 294 294 293 292 292 291 291 291 290 290 290 290 290 290 289 288 288 287 286 286 285 285 285 285 285 286 285 285 284 284 284 285 285 285 285 285 285 285 285 285 284 284 284 284 284 284 284 284 283 283 283 283 283 283 283 282 281
293 293 293 292 291 290 290 285 288 284 283 282 283 287 284 286 288 286 287 288 289 291 292 292 291 290 290 290 290 290 290 290 291 291 291 291 292 292 292 293 293 293 293 292 290 290 290 290 290 289 289 289 289 289 289 288 287 287 286 285 285 285 285 285 285 284 284 284 283 283 283 284 284 284 284 285 284 284 284 284 284 283 283 284 284 283 283 283 282 282 282 282 282 282 282 283 282
294 292 291 289 286 284 282 283 281 283 279 284 286 287 287 283 286 287 287 287 292 294 292 290 290 290 290 290 290 290 289 290 290 290 291 291 290 290 291 291 292 292 292 291 290 289 289 289 289 289 288 289 288 288 288 287 287 286 286 286 285 285 285 284 284 283 283 283 283 283 283 283 283 283 283 283 283 283 283 283 283 283 283 283 283 282 282 282 282 281 281 281 281 281 281 280 282
295 288 284 286 285 280 281 280 282 278 280 283 288 287 288 282 281 287 290 289 289 292 291 290 288 289 289 289 290 290 290 289 290 290 289 288 288 289 289 290 290 291 291 290 289 288 289 288 289 288 288 288 288 288 287 287 287 286 286 286 286 285 285 284 283 283 283 283 283 283 283 283 282 283 283 282 282 282 282 282 282 281 281 281 281 281 281 281 281 281 281 280 280 280 280 281 280
292 290 289 286 281 278 275 277 275 276 281 281 285 287 282 285 289 286 289 291 289 290 294 292 290 289 289 289 289 290 290 289 289 289 287 287 287 288 288 288 289 289 290 290 288 288 288 288 288 288 287 287 288 288 287 287 287 286 286 286 286 286 285 285 284 284 283 283 283 282 282 282 282 282 282 281 281 281 281 281 281 280 280 280 280 280 280 280 280 280 280 279 279 278 279 279 279
290 289 286 283 278 275 273 271 274 275 278 281 282 284 285 283 287 294 295 295 290 289 288 290 291 290 289 289 289 289 289 289 289 288 287 287 287 288 288 288 288 288 289 289 288 287 288 288 288 288 287 287 288 288 288 287 287 287 287 287 287 287 286 285 285 284 284 283 283 282 282 282 281 281 281 281 281 281 281 281 281 280 280 280 280 280 279 280 280 279 279 278 278 278 278 278 278
291 290 291 287 284 276 272 276 277 277 277 278 280 283 278 279 287 286 286 285 286 286 288 289 290 290 290 289 289 288 288 288 288 287 287 287 287 287 288 288 288 288 288 288 287 287 287 287 287 287 286 287 287 287 288 287 287 287 287 287 287 286 286 285 285 285 284 283 283 282 282 282 281 281 281 281 281 281 280 280 280 279 279 279 279 279 279 278 278 279 279 278 278 278 277 277 277
287 288 289 283 286 283 285 278 277 275 274 274 276 281 281 286 286 286 284 286 287 286 288 288 288 288 288 288 288 288 288 288 287 286 286 286 286 286 287 287 287 287 287 287 287 287 287 287 287 287 287 287 287 287 287 287 287 287 286 286 286 286 285 285 284 284 283 283 282 282 281 281 281 281 281 280 280 280 280 279 279 279 278 278 278 277 277 277 277 277 277 276 276 278 276 276 276
286 289 285 287 287 289 285 279 278 277 276 280 277 281 282 285 288 285 287 287 287 286 287 287 287 287 287 287 287 287 288 287 286 286 286 286 285 285 286 286 287 287 287 287 287 287 287 287 286 286 286 287 287 287 286 286 286 286 285 285 285 285 284 284 283 283 282 282 282 282 281 281 281 281 281 280 280 279 279 278 278 277 277 277 276 276 276 276 276 276 276 276 275 275 276 275 276
288 283 286 290 289 288 284 280 276 274 276 279 280 282 281 281 283 283 284 284 285 285 285 286 286 286 286 287 287 287 287 287 286 286 286 286 286 285 286 286 287 287 287 286 287 287 287 287 286 286 286 286 286 286 286 286 285 285 285 284 284 284 284 283 283 282 282 282 281 281 281 280 280 280 280 280 279 278 278 278 277 276 276 276 276 276 275 275 275 276 275 275 275 275 275 275 275
289 287 290 290 283 282 283 280 280 276 276 277 277 279 282 284 286 282 284 284 286 286 286 284 285 285 286 287 287 287 287 286 286 286 286 286 285 285 286 286 286 287 287 286 287 286 286 286 286 287 286 286 286 286 286 285 285 285 285 284 283 283 283 283 282 282 282 281 280 280 280 279 279 279 279 278 277 277 277 276 276 276 275 275 275 275 275 275 275 275 275 275 275 275 274 274 274
289 290 289 288 284 280 280 285 278 280 274 273 277 277 283 285 286 287 289 287 288 288 285 285 287 287 287 287 287 287 287 287 287 286 286 286 286 285 285 285 286 286 286 286 285 286 285 286 286 286 286 285 285 285 285 285 285 285 284 283 283 283 283 282 282 281 280 280 280 279 279 278 278 278 277 277 276 276 276 275 275 275 275 275 275 275 275 274 274 274 274 275 274 274 273 273 273
285 285 283 288 285 286 284 284 283 279 274 274 276 279 285 284 290 290 291 290 290 289 288 288 288 288 288 288 287 288 287 287 287 287 287 286 285 285 285 285 285 285 285 285 285 285 285 285 285 285 285 285 285 285 285 284 284 284 283 283 282 282 281 281 280 280 280 279 279 278 278 277 277 277 276 276 276 276 275 275 275 275 274 274 274 274 274 274 274 273 273 273 273 273 272 273 273
291 289 287 289 286 284 282 282 284 284 281 280 277 280 287 288 290 292 292 292 291 290 290 289 288 288 288 288 288 288 288 287 287 287 287 286 285 284 284 284 284 285 285 285 285 285 285 285 285 285 285 285 284 284 284 284 283 283 282 282 281 280 280 280 279 279 278 278 277 277 277 276 276 276 276 276 275 276 275 275 275 274 274 274 273 273 273 273 273 272 272 274 273 272 272 272 273
Wind_Speed
8 8 7 7 3 0 2 2 1 2 6 3 3 3 1 2 3 4 3 2 4 2 1 1 4 6 6 6 12 9 6 3 2 6 3 1 1 1 3 5 9 10 10 6 5 6 4 4 6 8 10 11 12 12 11 11 11 11 10 10 10 10 10 11 11 11 11 11 10 10 13 12 11 12 13 14 14 14 15 15 15 16 16 17 17 17 17 17 17 17 16 15 14 14 13 13 12
6 6 7 5 3 1 1 1 3 3 5 6 2 2 1 1 8 4 5 4 1 1 1 2 2 3 8 10 7 11 11 8 5 4 2 2 1 3 4 3 9 12 9 7 6 7 6 5 8 8 11 12 12 12 11 11 11 10 10 10 10 10 10 10 10 10 11 10 10 10 11 12 12 12 12 13 14 14 15 15 15 15 15 15 16 17 16 17 17 16 16 15 14 13 13 12 12
6 6 7 5 2 3 1 2 1 2 6 6 2 1 1 9 5 3 4 2 0 1 0 2 3 5 7 7 11 5 1 4 6 4 3 2 2 4 5 2 6 11 11 8 8 8 6 7 9 9 12 12 12 12 11 10 10 10 10 10 9 10 10 10 10 10 10 10 10 10 10 11 11 12 12 13 14 13 14 14 14 14 14 15 16 16 16 17 17 16 15 15 14 14 13 13 12
4 2 1 3 2 3 2 2 3 5 6 5 3 2 4 5 4 5 2 1 2 1 1 2 4 2 7 7 3 5 3 2 1 0 1 2 1 5 4 2 5 9 9 7 6 7 7 9 11 10 11 13 14 12 11 11 10 10 10 9 9 9 10 10 10 10 10 10 10 10 10 11 11 11 12 12 12 13 13 14 14 14 14 16 16 16 17 16 16 15 15 14 14 14 13 13 12
3 3 2 2 2 2 1 0 3 4 4 3 4 0 5 5 5 5 1 1 3 4 2 1 3 3 5 4 2 2 2 2 3 5 2 1 2 3 4 3 4 9 9 8 8 7 7 12 11 10 11 12 13 12 12 11 10 10 9 9 9 8 9 10 10 10 10 9 9 9 10 10 11 11 11 11 11 12 13 13 14 14 14 15 15 16 15 15 15 14 14 14 14 14 13 13 13
3 3 1 2 1 2 3 5 5 6 1 3 4 2 4 6 5 5 3 2 1 3 2 5 2 2 4 3 2 3 3 2 1 2 1 1 3 3 4 3 2 8 8 8 8 8 8 12 11 11 11 11 12 12 10 12 11 10 9 9 9 9 9 10 10 10 9 9 9 9 9 9 10 11 10 10 10 12 12 12 13 15 15 15 15 15 15 14 14 14 13 14 14 14 13 13 13
3 5 1 2 1 2 4 6 6 5 4 3 5 5 7 5 7 7 3 1 2 4 3 4 6 7 7 1 3 3 3 2 2 1 1 0 3 5 5 1 2 7 9 7 5 7 9 13 12 11 11 9 11 11 10 10 11 10 9 10 9 9 9 9 10 10 9 9 8 9 9 9 10 10 10 10 11 12 10 13 14 15 15 14 14 14 15 14 14 14 13 14 14 14 13 13 13
0 2 1 3 1 3 4 2 3 2 2 3 3 7 4 4 3 4 3 2 1 2 3 5 4 7 2 2 5 1 4 4 4 1 3 3 4 5 6 5 8 7 8 8 6 6 8 11 11 11 11 11 9 9 9 9 9 8 8 9 8 9 9 8 9 9 8 8 8 8 9 9 9 9 10 10 11 10 10 12 14 14 14 15 15 14 14 14 14 13 13 13 13 13 13 13 13
1 1 1 4 3 2 4 3 3 0 3 2 2 2 3 3 4 4 5 1 2 1 5 4 2 7 2 7 4 1 2 4 3 4 4 4 5 5 6 9 7 6 6 7 7 6 6 9 9 10 11 11 10 9 9 9 9 8 7 7 8 8 8 8 9 8 8 7 7 8 8 8 8 9 10 11 12 11 11 11 13 13 14 14 14 14 13 14 14 13 13 13 13 13 13 13 13
1 2 2 1 2 2 3 1 5 1 3 2 5 2 1 1 4 4 5 6 4 2 2 4 5 5 5 8 2 3 2 5 3 3 3 5 4 5 9 8 7 7 6 6 6 5 4 7 9 8 8 10 9 10 10 9 9 8 7 6 6 6 7 7 8 8 7 6 6 8 8 8 8 8 10 11 10 10 10 11 13 14 14 14 14 13 13 13 13 13 12 12 12 12 12 13 12
2 2 2 3 5 2 3 1 3 3 4 1 2 1 1 1 3 3 2 4 2 2 1 6 7 5 3 2 2 1 3 5 5 3 2 5 5 7 6 6 6 7 7 4 4 5 5 5 8 9 8 8 9 8 7 9 9 9 8 6 6 6 6 7 8 8 8 6 6 7 7 8 8 8 10 10 10 9 10 11 12 13 14 13 13 12 12 12 13 12 12 12 12 12 12 12 12
2 3 4 1 1 1 4 7 4 3 2 2 1 1 2 3 3 2 3 6 1 5 3 3 1 4 4 3 2 1 2 6 4 4 2 5 5 5 5 4 6 7 6 5 5 3 4 4 4 8 9 9 7 8 8 9 9 9 8 7 5 4 7 7 7 8 8 8 7 9 8 6 8 9 11 10 10 10 10 10 11 13 13 13 12 12 11 12 12 12 11 11 11 11 11 11 11
2 1 4 3 1 4 2 7 5 5 2 0 4 1 1 5 1 1 3 5 2 5 2 4 0 4 2 1 2 0 4 4 5 4 3 5 5 4 4 5 7 7 8 7 7 4 3 2 3 5 7 10 8 7 8 8 8 6 8 6 3 4 6 7 7 7 7 9 9 9 9 7 8 9 11 10 10 11 10 10 11 12 13 13 12 11 11 11 11 11 11 10 10 10 10 11 11
2 1 2 0 0 2 5 3 2 5 1 1 1 1 0 2 0 4 7 6 3 3 0 2 3 5 3 3 0 3 3 5 4 4 3 6 5 5 5 4 6 6 6 7 7 5 5 5 3 2 5 6 5 6 7 8 8 8 8 7 6 3 3 6 8 6 6 7 7 8 8 8 9 8 9 10 10 10 9 8 11 12 13 12 12 11 11 11 11 11 11 11 10 10 10 11 11
1 0 2 1 1 2 0 5 6 5 3 1 2 1 1 0 3 5 7 6 1 0 1 4 0 1 3 4 2 1 3 4 4 4 4 6 6 5 5 5 6 7 7 7 5 6 5 4 4 3 0 4 5 4 3 5 7 7 7 7 7 5 4 4 6 7 6 7 7 6 7 8 8 8 8 9 8 7 6 7 12 12 13 12 11 11 10 10 11 10 10 11 10 11 11 11 10
2 2 2 1 1 3 2 2 3 7 1 2 3 4 5 2 2 3 0 2 1 3 5 2 6 2 1 2 1 2 3 4 5 2 4 7 5 4 5 6 6 7 7 8 8 8 7 6 5 4 4 2 1 4 5 5 7 8 6 6 10 7 6 6 4 6 8 7 6 6 5 4 5 6 9 8 9 8 6 5 10 10 12 12 11 11 10 10 10 9 9 9 9 10 10 9 9
2 3 2 3 1 2 1 1 3 1 1 2 0 3 2 0 1 1 1 3 6 3 5 3 2 3 3 2 3 1 3 3 6 7 5 5 5 5 6 6 6 6 6 6 6 7 7 7 8 7 6 4 2 1 4 5 6 9 7 7 6 4 7 8 7 6 7 6 5 5 6 4 2 3 5 5 8 6 6 6 9 10 10 10 10 10 11 10 9 8 8 8 8 8 5 6 7
2 2 2 2 1 3 1 1 1 4 6 4 1 1 5 2 0 0 3 9 7 4 7 3 7 6 3 2 3 3 4 7 6 9 7 6 4 5 6 5 6 4 5 6 6 7 7 7 7 7 6 7 5 3 2 4 5 6 5 5 5 4 1 3 5 5 5 4 5 4 3 4 4 4 4 4 5 6 5 7 10 10 10 8 8 10 10 10 9 8 7 7 6 5 4 3 4
2 1 3 2 1 2 0 1 4 4 3 4 2 4 4 3 4 0 2 3 3 4 3 2 5 4 4 5 5 6 6 7 8 7 8 7 6 6 5 5 5 5 6 5 6 7 6 6 7 7 6 6 7 4 1 4 6 5 5 5 5 5 5 3 1 4 4 4 5 4 4 4 3 5 5 5 5 4 7 8 10 11 10 8 7 8 8 8 8 7 6 5 5 3 2 2 4
0 3 3 0 2 1 4 3 3 2 7 5 4 1 4 3 2 0 0 4 3 6 5 1 2 3 3 2 4 5 7 6 7 7 7 7 6 5 5 5 4 4 4 3 3 4 5 6 6 6 5 6 5 4 1 3 5 5 5 5 5 5 5 4 5 3 3 2 2 2 1 2 5 4 6 9 6 4 5 6 10 11 10 8 7 5 6 6 5 5 4 4 4 3 4 5 6
2 4 1 2 1 1 2 4 2 4 4 5 4 0 3 0 2 2 3 4 1 1 2 4 7 7 5 4 4 5 6 6 6 6 7 6 6 5 5 4 3 3 2 3 4 4 4 4 5 6 7 5 4 5 3 1 4 4 5 5 5 4 3 3 2 3 1 2 1 3 3 3 3 3 3 2 4 3 5 5 5 5 5 4 6 4 4 3 4 2 2 3 2 4 5 5 6
2 1 2 2 2 4 2 3 3 2 3 4 2 2 2 0 1 1 3 3 5 7 2 5 7 6 6 5 4 4 6 6 5 6 6 6 5 5 5 4 4 4 4 5 4 4 4 4 4 5 6 6 4 4 4 3 1 2 3 5 5 4 4 4 4 3 3 3 4 2 4 5 3 3 4 3 3 3 2 2 5 5 4 5 4 4 3 3 3 2 3 2 2 3 4 4 4
2 1 2 4 1 3 2 1 1 2 1 2 1 1 1 1 1 0 4 3 2 3 5 5 6 5 4 4 4 5 6 6 5 5 5 5 5 5 4 4 4 4 4 4 4 3 5 4 5 5 6 6 5 3 3 3 6 5 6 5 7 5 6 6 6 6 6 5 4 4 5 2 3 3 3 2 3 2 3 2 2 0 3 3 2 4 2 2 2 3 4 3 3 4 3 4 4
4 1 1 2 2 3 2 2 1 2 6 1 1 1 1 1 1 0 3 0 4 5 6 5 5 5 5 6 4 5 5 5 5 5 5 6 5 4 3 4 3 3 3 4 5 5 5 6 6 6 5 4 5 3 2 6 5 7 7 8 7 7 8 7 6 6 6 7 5 5 6 3 5 5 3 3 4 4 4 2 4 2 3 5 3 2 3 2 2 4 4 3 3 2 3 2 4
2 1 1 1 1 1 3 4 1 0 1 1 3 0 2 3 1 1 3 4 4 5 5 4 5 6 5 6 5 5 5 4 5 5 5 4 5 4 5 5 3 3 5 6 4 4 6 6 6 6 5 4 3 2 6 6 6 7 7 7 7 6 8 6 6 7 7 5 6 6 5 6 5 5 5 4 4 5 5 6 5 5 5 3 2 2 3 4 4 4 4 3 2 2 2 3 4
1 0 0 1 0 1 4 3 2 2 0 0 1 3 4 4 3 2 6 6 5 5 5 5 6 6 5 5 5 5 4 4 4 5 5 4 4 6 4 4 3 5 5 5 5 5 5 7 6 6 5 5 5 7 5 7 6 8 7 8 6 7 7 6 8 7 6 5 6 6 6 6 6 5 6 5 6 7 6 6 6 6 5 5 5 6 4 4 4 5 5 4 4 3 3 2 4
2 0 1 1 4 2 1 5 4 4 3 2 3 1 3 2 5 5 2 6 6 6 6 4 6 6 5 4 4 4 5 4 4 3 5 4 4 5 3 4 5 5 5 6 5 5 5 5 6 6 6 6 6 7 7 8 7 8 8 7 7 7 6 7 7 7 6 6 6 7 7 7 6 7 7 6 6 6 6 6 6 5 6 5 4 5 4 5 4 5 5 4 3 4 4 3 5
2 2 3 4 5 4 3 3 5 3 2 4 4 4 1 1 1 7 8 8 7 9 6 6 5 5 5 5 5 4 4 3 4 5 4 4 4 4 4 3 4 4 4 5 4 5 4 6 5 6 5 4 8 7 8 8 9 8 8 8 8 7 7 8 8 7 7 7 7 7 7 7 7 8 8 7 7 7 7 7 6 7 6 5 5 5 5 5 6 5 6 5 4 4 5 5 5
0 1 3 5 5 4 3 6 5 6 2 6 4 1 3 1 7 2 10 9 7 7 8 6 6 5 5 4 4 4 4 4 4 4 3 3 3 3 4 2 3 2 2 3 5 4 6 5 6 7 5 5 8 8 9 7 9 8 8 9 8 8 8 8 8 7 7 7 7 8 9 7 7 7 7 8 7 7 7 7 7 7 6 5 5 6 6 6 7 6 7 6 7 7 8 7 6
1 1 2 5 5 5 8 5 3 6 2 7 5 3 7 8 6 3 8 10 7 7 6 6 6 6 5 5 4 4 4 4 4 4 3 3 4 3 4 3 2 4 2 3 4 6 5 4 4 4 5 8 8 8 9 8 9 9 8 9 9 9 8 8 8 7 7 7 8 9 9 9 8 7 8 8 7 7 7 8 7 7 7 7 7 7 8 7 7 7 6 7 7 7 7 6 6
1 1 2 2 3 4 4 3 5 6 0 6 3 4 7 6 1 4 7 8 11 9 7 6 7 6 5 5 5 4 3 4 5 4 4 3 3 3 4 3 4 4 4 4 5 5 7 5 4 5 6 9 9 10 10 10 8 9 9 9 9 9 8 9 8 7 8 7 8 9 10 10 10 10 9 9 8 7 8 8 9 7 7 7 8 6 7 7 8 9 7 7 7 7 7 6 6
0 3 3 3 3 5 4 3 8 10 0 2 5 2 9 8 4 5 6 6 6 8 7 7 6 6 6 5 5 5 4 4 4 4 4 3 4 4 4 4 4 4 4 4 4 5 7 6 6 7 8 10 9 9 11 9 9 11 10 9 9 10 9 8 8 8 7 7 8 9 10 10 10 10 10 9 9 8 8 8 7 7 8 7 7 7 8 8 8 9 9 8 8 8 7 7 5
1 4 3 2 2 5 4 1 3 5 4 0 8 6 2 4 5 6 6 8 6 6 7 7 8 8 7 6 6 5 5 4 3 4 4 4 4 4 3 4 4 3 3 4 5 6 7 7 7 8 9 9 10 11 11 10 10 11 11 10 10 10 9 8 8 7 7 8 8 9 9 9 10 10 9 9 9 8 8 8 7 8 6 7 8 8 8 7 8 8 9 8 7 6 7 6 6
3 0 4 3 3 1 3 4 3 2 6 4 5 3 5 1 4 8 7 9 7 7 9 9 9 8 7 6 7 7 6 5 5 4 4 4 5 4 4 4 3 3 3 3 6 7 6 6 7 8 7 7 9 10 7 10 11 11 11 9 10 11 10 8 7 7 8 8 8 9 9 8 9 9 9 9 9 9 9 9 8 8 7 8 9 9 8 7 6 7 9 8 8 7 7 7 7
4 2 2 6 2 4 6 1 3 5 2 5 4 6 9 8 3 6 10 8 9 10 11 11 10 9 8 7 8 8 7 6 5 4 4 4 5 4 4 4 4 3 3 4 4 6 7 6 8 9 8 9 10 9 10 11 12 11 10 9 10 10 9 8 7 9 8 8 9 8 9 9 9 9 10 9 10 9 9 9 9 9 8 9 9 9 9 8 8 7 8 7 6 7 7 6 5
6 5 5 3 3 3 1 5 1 10 5 5 5 8 11 11 7 6 5 8 11 10 3 4 6 7 7 8 7 7 7 6 4 4 4 4 4 4 4 4 4 3 4 4 4 6 6 6 5 6 7 8 7 8 7 9 8 8 10 9 11 9 8 9 9 9 8 9 8 9 9 9 8 9 10 10 10 10 10 9 10 9 9 9 10 11 9 8 7 7 9 8 8 8 10 9 8
3 1 1 4 4 5 3 1 3 4 1 8 9 9 6 6 9 10 11 6 7 7 7 8 8 8 9 8 8 7 8 7 5 5 5 5 5 4 4 5 4 5 5 3 3 5 4 5 5 7 6 5 6 6 6 7 9 9 9 9 10 7 8 8 9 8 9 8 9 9 9 9 9 10 10 10 10 10 9 8 9 9 8 9 10 9 7 9 8 6 5 7 10 11 12 11 11
5 5 4 6 2 5 3 3 1 1 3 3 4 5 8 9 6 8 4 5 12 13 12 9 10 10 9 10 8 8 6 4 5 5 4 4 4 5 5 5 5 6 4 3 4 6 6 6 7 7 6 7 6 5 6 6 5 5 9 8 9 7 7 8 9 8 8 8 10 9 9 9 10 10 9 9 10 9 9 9 9 9 8 8 9 8 10 10 11 10 5 7 7 10 9 10 11
6 7 6 5 8 4 3 1 1 0 1 8 5 6 9 9 8 5 9 14 13 16 16 16 16 13 10 9 9 8 8 8 5 5 5 5 5 5 5 6 5 5 6 3 3 7 7 7 6 7 6 7 7 7 7 9 7 6 9 8 9 10 7 7 8 7 8 10 10 9 9 9 9 10 9 9 10 9 9 9 9 8 8 7 10 11 11 11 9 9 9 6 6 6 7 8 11
7 6 3 8 4 1 6 3 1 1 2 2 1 6 8 8 7 8 10 13 6 5 7 5 7 12 13 13 13 12 10 10 9 9 8 6 6 6 6 6 6 5 5 3 6 8 6 6 5 8 7 7 8 7 9 10 10 10 10 11 9 10 9 7 9 8 9 11 11 9 9 8 9 10 9 9 9 10 9 9 8 9 9 9 9 10 10 10 9 9 9 9 4 8 7 9 9
2 5 4 3 2 4 7 5 0 2 3 1 4 7 9 8 12 11 4 1 1 1 4 4 5 6 6 6 7 12 14 12 10 9 8 7 7 7 7 7 5 5 4 5 5 6 6 7 7 8 8 8 8 10 11 12 12 12 12 11 10 11 8 7 9 9 8 9 9 9 8 7 9 10 9 10 9 10 9 9 9 9 9 8 8 9 9 8 8 7 8 9 9 5 7 5 8
4 5 8 7 4 5 3 1 1 2 3 3 2 5 6 4 6 11 2 1 4 2 6 9 7 7 8 11 11 7 7 9 12 11 10 9 8 7 7 7 6 5 5 5 5 7 8 8 8 8 8 8 10 9 10 9 10 12 10 10 10 9 9 7 9 8 7 8 9 5 8 8 9 10 9 9 9 9 10 9 9 9 9 8 8 8 8 9 10 10 8 7 8 7 6 8 7
4 6 7 7 7 6 4 3 1 3 5 3 2 6 10 1 4 5 3 5 9 2 8 9 6 8 10 10 10 10 11 9 7 7 8 9 8 9 9 8 8 7 5 6 6 7 8 8 9 9 9 8 8 8 6 7 8 7 8 8 9 10 12 6 6 5 8 7 7 9 8 8 9 10 9 9 9 9 9 9 9 9 9 8 7 9 9 8 7 7 7 9 7 7 7 9 8
5 2 2 6 5 6 6 4 4 6 2 2 1 3 6 14 10 9 9 8 10 9 11 9 10 9 8 8 9 10 10 11 11 11 9 8 9 10 11 10 8 7 7 7 7 7 9 8 8 7 7 7 5 6 6 6 10 9 10 10 9 9 11 11 8 7 7 7 9 9 8 8 8 8 9 8 8 8 8 9 8 8 9 8 8 8 8 6 7 7 7 7 8 7 7 8 6
4 1 6 3 5 4 3 2 1 1 3 8 2 1 3 9 5 3 5 6 7 13 15 15 14 9 8 8 9 10 11 11 12 12 12 11 11 9 9 10 8 8 7 7 7 7 6 6 7 7 8 7 6 8 9 7 9 10 10 11 11 8 10 9 8 7 8 8 10 8 8 7 8 8 8 8 8 8 8 8 8 8 9 8 7 8 8 8 9 8 9 9 8 8 7 5 7
1 2 7 5 5 4 3 2 2 2 1 8 5 5 6 18 6 3 1 3 9 13 17 17 14 14 13 11 9 8 8 8 9 10 10 9 8 7 8 9 9 8 7 7 7 7 6 6 7 8 8 7 8 9 10 10 9 9 11 11 15 11 9 9 8 9 8 7 10 8 7 7 6 7 7 7 8 7 8 8 8 8 8 7 8 7 7 9 8 8 8 7 7 8 6 7 6
5 6 7 6 8 5 3 5 3 3 7 9 9 10 8 12 2 10 9 9 11 12 5 2 7 10 11 10 11 10 9 9 9 9 9 8 6 8 9 11 9 8 7 8 7 7 7 7 8 9 7 8 9 10 12 11 9 8 10 11 13 14 11 11 11 9 8 7 9 7 7 6 5 6 6 7 7 7 8 8 8 8 7 7 7 7 7 7 7 7 6 7 8 7 6 6 6
10 2 4 5 3 5 3 3 3 1 11 4 13 12 12 13 3 4 6 1 3 6 8 8 10 15 14 12 12 12 10 10 10 10 10 9 8 8 8 10 10 9 8 9 7 7 8 7 9 10 7 8 8 9 11 11 9 8 8 11 12 11 12 11 12 11 9 9 9 9 6 7 6 6 6 7 7 7 7 7 6 7 7 7 8 6 6 6 6 6 7 7 6 5 4 5 5
5 7 7 7 3 4 2 2 2 6 11 1 5 8 1 20 9 1 4 8 5 6 9 10 12 11 11 11 12 12 11 10 11 11 10 11 12 12 11 10 10 9 10 10 9 8 8 8 10 12 9 8 9 10 11 10 9 9 10 10 10 10 10 10 10 10 8 9 8 8 8 7 6 7 6 7 5 6 6 7 7 7 7 6 6 6 6 6 6 7 6 5 5 5 5 5 7
7 10 8 7 2 2 4 3 3 6 4 4 2 4 10 2 6 11 17 12 5 3 6 5 11 14 15 14 12 12 12 12 11 11 11 11 11 10 10 11 10 9 10 10 9 9 8 9 9 12 9 8 9 10 11 11 9 9 9 9 10 10 9 9 8 10 8 7 7 8 7 7 7 7 6 6 5 5 6 6 7 7 6 5 6 6 6 5 5 6 5 6 5 4 5 5 5
10 4 13 11 9 5 4 6 7 8 5 1 2 5 8 4 6 2 5 3 2 3 4 3 6 9 10 9 8 9 10 9 10 11 12 12 11 11 11 11 10 9 10 10 9 9 9 9 10 12 11 8 10 10 10 11 10 9 8 8 9 8 9 8 7 7 8 9 7 8 7 6 7 5 6 5 5 6 6 6 6 7 6 6 6 6 6 5 4 5 5 6 6 5 5 6 5
3 2 4 3 9 6 10 4 3 1 1 2 2 7 4 6 2 2 1 3 2 3 2 5 6 7 9 10 12 12 11 11 10 10 10 9 9 9 9 9 9 10 10 9 10 10 10 10 10 11 12 10 10 10 10 11 10 9 9 10 9 9 8 8 7 7 7 7 8 8 7 6 6 6 5 6 5 5 6 6 6 7 6 6 5 5 5 5 4 6 6 6 6 4 5 5 4
4 6 8 7 4 4 4 2 1 1 2 12 4 8 6 8 7 6 1 0 1 2 2 4 6 8 10 11 11 11 11 11 11 11 11 11 8 8 9 10 10 10 10 10 11 10 12 12 12 12 11 9 10 10 10 9 10 10 9 9 9 9 9 10 10 9 9 7 7 7 7 6 6 6 6 5 6 5 5 6 7 6 5 5 5 5 5 4 5 6 6 5 6 4 5 4 4
7 5 7 2 2 3 3 5 2 0 5 8 6 12 5 2 12 1 3 2 3 3 5 5 5 7 11 11 13 14 14 12 11 9 9 10 10 11 10 9 9 10 11 10 11 9 10 10 12 13 12 13 10 10 10 10 11 10 10 9 8 8 9 9 9 10 9 9 7 7 6 7 6 5 5 5 6 6 6 5 6 5 5 5 5 4 5 4 5 6 5 5 4 4 4 4 4
7 7 4 8 5 3 2 3 7 1 6 6 4 4 9 11 11 2 6 8 8 10 7 6 9 10 13 11 10 9 9 10 12 12 12 12 12 12 11 12 9 9 9 9 9 10 9 8 9 10 12 10 10 9 8 8 8 8 8 9 9 8 8 8 8 8 8 9 8 7 7 7 6 6 6 6 6 6 5 5 5 5 5 5 4 4 4 5 5 6 5 5 4 4 4 4 3
2 2 2 1 3 1 6 8 2 4 5 1 8 4 15 7 8 13 11 13 15 13 8 13 15 16 13 12 12 13 14 14 14 13 13 13 13 12 13 13 13 13 10 9 9 8 10 9 10 9 8 8 8 9 9 10 8 9 9 8 7 7 7 8 8 9 8 8 7 8 7 7 7 6 5 6 6 5 5 6 5 5 5 4 5 5 5 5 5 5 5 6 4 4 4 3 3
2 2 4 1 0 2 3 1 4 4 3 4 5 11 13 4 6 11 13 16 17 16 17 15 14 14 12 12 14 14 14 14 14 13 13 13 12 11 10 9 9 8 7 8 10 11 10 9 9 10 13 11 10 10 10 9 9 9 11 10 9 8 8 8 8 7 8 7 6 6 6 6 6 6 6 6 6 5 5 5 5 5 5 5 5 5 4 4 5 5 4 4 3 3 3 2 2
14 15 14 15 10 5 4 9 2 2 2 7 4 15 15 2 1 8 9 13 13 13 16 15 14 13 13 12 12 13 13 12 12 12 12 12 11 10 9 8 8 9 10 10 9 10 10 10 10 10 10 10 11 10 10 10 9 10 10 10 9 7 8 8 9 8 8 7 6 7 6 6 6 5 5 6 6 5 5 5 5 5 5 5 5 5 4 4 5 4 3 2 2 2 2 2 1
Wind_Direction
317 314 305 296 264 144 47 10 74 311 61 98 117 51 131 61 94 59 48 358 43 281 229 19 40 18 77 122 102 84 21 77 313 126 153 220 240 21 31 80 129 133 137 138 139 130 125 127 137 127 126 126 123 119 116 116 114 113 111 111 108 102 98 95 94 90 88 85 85 79 78 75 84 90 91 96 94 92 87 82 79 78 74 70 65 63 60 57 54 52 50 48 45 44 42 41 42
305 314 307 299 267 80 328 120 102 23 42 57 43 95 82 73 63 82 77 87 185 211 259 89 62 94 104 110 115 81 25 19 31 94 73 92 82 17 332 82 143 138 139 143 140 129 134 153 142 138 137 135 129 127 124 122 120 116 114 111 108 106 100 97 95 95 92 91 87 82 78 80 82 90 93 92 90 88 86 81 78 75 72 69 67 63 60 57 53 49 47 46 44 42 42 42 42
312 338 324 2 31 82 265 53 76 95 84 70 335 124 35 72 100 95 105 113 181 254 80 32 60 46 57 66 36 55 173 29 34 56 99 336 50 298 313 344 137 139 145 148 144 138 139 149 147 146 143 141 137 135 131 126 124 120 118 115 112 111 108 102 98 99 97 93 92 83 80 82 83 89 92 91 92 89 84 84 82 81 77 71 67 63 59 54 51 48 45 44 43 41 40 41 41
302 247 231 21 1 25 65 23 86 115 103 168 79 14 87 120 119 122 132 104 360 90 38 30 61 313 91 63 131 79 81 41 3 234 88 342 184 262 274 288 124 139 144 146 146 141 142 152 148 149 146 144 144 142 138 133 129 128 121 120 119 118 116 111 107 103 101 98 96 89 84 82 82 86 91 92 89 90 87 87 85 81 77 70 66 63 59 54 50 47 46 45 45 44 41 40 41
312 292 144 58 104 356 90 162 121 98 90 180 134 170 117 122 127 109 126 132 37 67 44 83 80 32 81 98 4 70 297 288 34 22 130 245 276 277 287 314 99 144 148 148 141 138 138 145 148 147 148 147 145 143 141 136 135 131 126 126 127 124 119 117 112 109 106 104 101 98 90 86 86 88 93 94 94 92 90 87 87 82 78 74 68 64 60 56 52 49 48 48 48 46 44 42 42
308 11 20 99 98 176 47 36 30 75 210 152 104 156 152 139 124 135 129 74 150 75 119 53 133 113 40 15 17 85 305 70 151 46 102 291 291 321 328 296 122 144 146 143 146 146 147 145 144 148 146 148 147 143 144 142 137 137 137 135 134 130 123 121 119 115 114 111 109 102 92 89 89 88 94 100 104 93 90 94 92 88 76 71 69 65 61 56 52 51 52 52 52 50 47 45 43
327 21 5 23 355 62 132 116 76 94 342 121 141 140 133 145 149 120 130 39 343 46 73 110 106 98 81 201 65 74 29 289 68 323 116 241 3 358 325 306 144 94 120 128 135 138 144 142 144 145 143 145 148 148 148 145 143 144 144 142 139 135 133 129 125 122 120 120 114 109 106 97 95 92 93 97 94 101 104 92 87 84 83 75 70 64 59 55 51 51 54 55 55 54 51 48 46
73 88 298 84 306 56 58 134 85 168 33 80 166 122 137 136 122 102 162 95 296 69 345 106 109 91 313 110 118 50 25 48 107 79 26 38 24 359 27 38 86 101 106 114 121 117 130 134 138 142 143 144 152 150 150 147 145 143 141 144 142 137 137 134 128 126 126 121 116 113 109 103 97 96 96 96 102 103 95 92 92 89 84 79 71 65 60 55 51 53 55 56 57 57 55 52 47
346 98 342 67 33 23 68 93 106 68 111 49 44 149 128 129 133 143 87 144 130 68 24 22 127 81 174 67 92 67 20 358 53 70 52 40 37 12 38 44 72 83 92 112 118 123 121 119 127 142 144 146 153 154 155 152 152 144 146 152 144 141 139 134 127 125 123 125 120 113 107 101 99 102 101 99 106 105 97 95 94 90 83 78 73 68 62 56 53 56 57 57 58 57 57 55 51
24 94 325 116 123 59 90 355 74 191 136 181 114 96 86 358 39 88 123 69 127 86 4 39 83 109 132 99 95 357 336 345 12 36 51 57 43 33 44 47 55 83 96 102 107 112 108 108 114 127 144 144 149 154 163 148 149 148 154 148 148 144 144 136 131 129 125 122 117 115 108 104 103 104 102 106 109 108 103 100 99 96 89 82 78 72 67 59 57 57 58 59 59 58 57 55 53
358 1 145 60 22 86 117 141 101 73 105 120 44 5 100 94 75 81 107 115 71 101 327 81 67 121 111 48 104 237 12 5 19 22 55 78 46 37 43 41 58 70 80 85 88 96 100 102 110 114 128 128 137 143 154 152 156 152 158 157 162 149 152 141 138 133 131 128 125 121 116 107 98 101 105 106 112 112 110 106 101 98 93 88 83 79 73 67 62 61 60 58 58 58 57 55 53
26 353 13 99 42 148 194 133 138 132 89 72 2 340 327 51 59 48 77 102 67 50 55 16 112 134 65 123 205 200 6 5 339 327 86 86 67 51 49 37 50 52 67 94 104 99 108 113 99 108 118 125 131 145 146 150 161 156 160 171 170 157 157 153 147 141 139 131 117 122 122 128 114 104 108 113 120 117 110 113 110 103 99 92 88 85 80 75 70 67 66 64 61 60 57 55 52
106 78 65 79 221 92 155 102 170 122 82 321 166 254 42 58 88 136 65 64 70 77 13 342 194 95 123 163 188 114 15 330 316 317 85 99 99 75 50 44 40 46 54 62 66 65 66 63 120 109 114 115 130 136 142 148 152 159 151 170 193 181 170 150 153 151 140 136 133 137 139 143 118 117 121 128 132 130 133 126 118 116 111 103 98 94 89 83 78 75 71 68 66 62 60 57 52
97 154 116 292 5 108 120 142 133 110 354 238 266 196 32 108 316 106 101 68 3 96 246 324 69 102 93 88 82 342 314 298 303 311 86 106 106 99 82 58 50 52 54 56 53 51 46 44 46 110 125 125 127 132 141 148 157 157 164 160 187 156 142 155 153 152 146 135 134 138 138 137 133 134 133 135 142 147 140 135 124 126 118 112 109 104 100 95 89 82 75 72 69 65 60 58 55
74 141 85 123 331 85 209 116 191 126 170 211 235 93 56 15 99 48 103 118 102 204 198 63 254 73 213 142 242 245 277 279 287 294 112 116 109 108 98 77 57 45 37 44 46 43 30 25 43 42 52 150 143 140 136 162 154 157 159 157 163 159 95 65 147 146 143 133 133 135 138 135 136 128 128 139 140 138 147 135 131 132 125 119 116 109 106 101 93 88 82 80 77 71 65 61 58
142 78 87 84 292 118 259 102 92 101 175 172 230 126 72 339 47 91 209 141 179 13 36 337 16 110 109 112 167 212 262 305 300 262 128 106 93 72 70 65 64 51 42 30 25 16 10 14 11 20 38 38 167 176 166 147 164 159 162 153 160 163 124 104 115 145 134 133 134 131 117 99 103 121 132 136 140 146 149 132 133 130 127 126 119 114 109 102 95 94 92 86 83 76 68 59 54
44 83 46 30 350 67 303 63 115 155 214 212 229 114 120 134 318 92 71 58 89 5 51 1 70 53 64 147 194 136 352 353 40 64 66 67 88 62 51 41 47 38 28 28 30 17 19 16 7 8 357 357 33 206 184 162 167 161 160 158 133 156 154 133 114 116 120 117 122 119 121 122 124 115 135 143 147 145 134 119 127 129 130 130 124 119 115 108 105 104 106 99 90 84 71 58 39
60 57 106 32 190 62 262 129 189 172 127 186 73 130 118 125 332 276 67 51 83 61 71 40 49 63 114 120 103 86 34 41 37 70 63 61 53 58 53 33 43 35 28 11 20 21 15 8 0 2 354 352 342 5 139 162 146 166 156 145 155 167 69 87 132 135 133 129 122 145 158 152 149 152 146 147 155 148 126 132 140 134 136 136 134 125 121 119 119 120 117 120 112 101 76 55 58
89 84 82 147 175 319 166 164 89 115 167 171 165 89 126 184 133 259 86 117 110 67 43 69 83 61 49 52 61 65 51 42 50 63 68 67 57 63 62 54 41 27 24 11 16 25 10 358 357 352 346 340 342 352 49 145 157 161 157 154 142 159 164 155 132 143 149 149 157 172 180 154 155 165 157 162 149 150 132 142 139 138 140 142 133 121 123 124 126 127 124 126 134 115 42 31 37
345 109 69 292 194 86 47 69 83 75 147 124 91 71 109 204 110 157 155 126 130 145 153 130 122 146 118 69 71 73 65 56 53 62 66 62 58 60 59 51 45 30 20 19 15 17 16 359 344 329 332 331 336 324 40 152 169 170 164 161 155 165 166 180 166 169 133 181 200 106 117 170 163 181 166 147 144 147 119 131 142 141 142 142 126 111 116 125 115 99 89 51 67 75 83 71 66
302 69 146 199 212 90 320 62 52 75 109 137 125 137 84 297 170 118 176 83 353 256 241 187 170 156 147 130 97 81 73 67 58 57 60 58 53 54 63 73 71 34 16 9 15 13 3 354 338 330 325 317 325 315 333 115 188 182 170 161 152 159 154 145 121 118 125 106 111 81 68 73 80 86 83 119 126 132 149 137 134 141 142 137 136 125 129 125 103 87 54 25 46 70 65 68 74
68 116 185 165 67 80 240 102 56 59 78 98 112 91 187 247 31 130 144 171 207 194 181 120 127 140 136 119 103 90 84 82 73 67 68 66 58 45 35 31 31 32 11 33 1 354 348 338 334 315 313 298 294 289 302 304 78 109 119 134 125 107 97 75 65 68 78 119 86 122 110 84 76 92 101 81 61 81 41 100 144 146 149 150 149 146 147 147 139 132 103 96 80 75 88 89 91
74 317 53 42 85 133 217 53 321 76 31 86 83 192 88 87 259 176 127 188 182 140 135 123 120 126 129 112 105 90 92 88 86 86 89 83 65 50 38 32 45 25 25 23 358 346 337 334 329 312 300 289 280 280 285 12 75 73 79 89 96 83 88 84 71 65 61 59 70 81 73 87 138 114 118 103 102 131 127 93 46 139 120 112 170 123 163 176 172 148 129 142 121 102 87 93 87
100 181 15 3 59 118 133 140 135 75 100 78 191 62 144 94 286 101 89 11 136 118 117 119 118 108 94 89 96 108 106 109 106 98 98 101 92 70 58 41 36 31 29 27 7 343 335 329 321 313 310 285 259 273 352 78 85 82 80 80 80 86 83 77 73 63 58 55 53 57 78 77 95 88 87 92 84 83 75 116 148 133 158 190 181 162 172 103 81 104 127 134 113 110 109 92 84
84 40 342 288 52 184 129 143 124 83 249 174 56 254 237 166 197 83 156 158 139 126 119 120 111 99 90 104 105 94 85 83 100 99 82 88 90 72 45 39 32 36 31 19 355 346 330 327 320 328 323 326 289 25 86 91 86 81 77 79 79 83 80 74 80 65 56 53 53 62 73 76 71 76 77 77 80 66 58 63 58 45 42 28 99 58 90 114 95 108 93 82 72 67 70 70 87
68 162 39 356 306 199 166 137 165 184 269 186 41 251 276 242 228 246 171 170 155 136 119 130 112 103 106 112 117 104 93 89 94 88 87 77 74 61 38 38 29 41 29 12 354 340 330 328 337 337 345 358 61 87 90 86 81 86 77 78 80 77 80 83 75 69 61 57 52 55 58 71 71 74 73 59 67 63 61 62 59 50 48 42 53 63 39 74 79 67 66 54 67 74 55 40 89
165 76 45 269 262 311 244 176 219 197 200 173 183 286 273 305 154 267 165 168 152 132 147 142 123 128 126 111 102 102 97 85 90 110 68 59 57 73 44 40 33 33 21 12 350 342 317 340 353 343 8 44 66 78 81 80 78 78 78 79 71 69 70 75 66 67 60 53 55 54 59 60 71 73 72 66 68 69 64 65 64 63 55 48 56 79 69 79 76 76 82 80 52 59 57 45 52
67 82 355 315 296 270 236 226 216 122 283 180 158 234 249 331 100 231 163 171 158 148 162 147 134 136 129 119 104 107 94 87 71 78 88 70 74 81 51 43 25 33 20 2 347 329 353 6 360 6 18 46 77 80 82 82 78 76 77 76 68 62 60 61 60 55 53 47 42 49 59 56 62 66 67 65 66 67 66 61 54 54 47 38 49 50 54 62 65 60 55 52 50 49 39 31 24
177 78 337 293 335 312 240 210 215 154 241 153 139 354 306 217 227 226 155 154 162 151 160 155 147 146 137 130 119 109 119 104 88 90 112 124 105 103 103 67 59 50 16 357 352 2 23 8 11 17 16 56 71 76 79 76 78 73 68 71 68 63 58 58 57 49 50 46 47 44 47 52 65 71 70 68 62 63 61 59 56 52 44 30 39 55 52 44 44 35 36 46 44 38 30 20 18
52 29 166 334 3 318 258 209 159 148 224 139 119 289 269 247 229 144 148 154 149 146 167 164 158 151 151 143 139 132 116 100 100 124 125 121 108 116 105 90 66 53 17 3 15 33 26 22 23 36 28 63 61 68 79 76 74 74 71 72 69 66 61 62 57 53 49 49 50 46 50 49 49 52 62 61 57 61 62 61 56 48 43 44 46 43 52 51 56 48 33 46 41 45 42 23 21
156 257 74 188 15 276 301 183 167 154 144 147 100 193 278 277 258 180 169 162 160 166 178 172 165 164 157 154 143 132 133 135 136 120 108 101 108 99 96 73 59 43 31 27 27 41 48 35 33 55 40 71 67 73 72 77 78 81 77 71 70 70 66 65 59 54 52 51 53 51 49 53 54 58 59 66 60 57 56 54 46 41 44 44 55 46 60 55 57 52 35 48 45 37 33 31 20
188 41 299 320 163 278 301 67 161 168 221 128 100 278 245 264 216 193 188 177 166 169 178 178 172 170 167 160 149 140 137 123 110 103 103 88 93 89 77 70 59 45 36 31 38 62 61 51 51 73 64 74 69 78 77 78 81 83 75 74 76 70 69 64 58 54 53 54 57 57 54 57 59 60 62 64 68 60 62 61 51 44 41 48 49 49 52 53 56 56 42 39 43 32 23 14 10
350 141 266 265 150 254 343 249 201 148 121 246 178 204 302 295 193 187 197 184 182 173 187 186 180 177 170 162 158 150 134 109 93 96 87 84 86 83 85 80 67 51 43 41 68 78 70 66 69 64 73 83 85 75 83 85 82 83 81 77 75 73 71 68 64 62 60 60 58 58 54 61 62 61 63 65 69 65 63 62 52 47 43 51 50 45 49 43 57 66 55 45 50 41 25 9 7
305 58 215 212 207 285 254 299 229 164 139 201 240 237 230 243 178 189 198 192 185 194 195 190 184 179 177 165 157 161 155 146 143 131 123 110 109 112 99 96 88 73 45 62 84 87 83 78 82 79 76 86 91 91 93 95 84 81 82 76 73 73 69 67 66 65 63 58 59 59 54 53 56 61 60 61 68 63 61 61 56 47 47 49 51 46 44 42 52 60 62 46 42 42 30 18 1
210 191 258 292 284 200 223 154 258 132 199 174 220 241 262 264 237 214 199 192 199 209 199 190 182 176 174 170 167 167 161 152 159 151 135 118 111 110 108 99 94 74 67 72 78 97 96 91 101 95 89 91 94 98 101 91 91 85 81 75 71 69 65 62 60 62 58 59 58 58 58 58 55 58 62 62 68 63 61 56 54 47 48 51 53 49 40 37 44 49 60 48 44 49 41 22 3
196 168 187 185 211 277 220 235 248 167 187 230 193 214 238 248 242 229 225 203 204 220 193 186 186 177 173 176 173 167 158 151 163 137 129 122 126 128 117 106 91 85 86 76 76 102 111 111 118 123 115 109 105 104 100 97 93 89 89 83 73 65 66 65 57 61 59 61 57 59 60 61 57 60 61 63 67 65 63 57 58 50 50 55 57 52 43 40 38 44 43 43 36 34 33 18 9
225 240 189 217 212 280 289 266 250 153 128 226 227 230 244 250 234 224 209 193 219 221 214 197 192 184 181 180 177 161 154 157 170 145 138 139 136 140 127 113 110 93 92 79 82 94 89 96 99 82 84 104 112 114 102 103 104 98 82 81 86 77 76 74 67 58 61 60 60 61 61 60 60 61 59 63 66 67 65 62 61 54 52 58 60 59 55 51 45 46 48 44 41 40 26 11 10
224 239 244 274 199 257 242 239 157 319 175 290 245 247 254 250 243 236 190 177 214 210 213 205 196 192 187 176 170 160 151 133 141 133 149 136 136 139 127 124 124 114 105 97 83 93 89 77 87 88 79 81 81 82 94 80 65 93 109 99 97 84 76 74 76 61 65 64 59 59 60 60 62 62 61 65 66 68 69 64 59 56 53 59 65 60 54 49 44 41 31 51 36 53 43 16 7
240 221 242 253 266 239 290 359 356 292 124 260 281 275 263 262 255 230 187 198 212 207 202 201 189 190 185 177 165 146 151 158 158 163 159 157 151 140 128 125 125 124 129 136 113 97 91 87 89 91 89 91 86 88 92 96 92 90 102 102 100 95 69 80 84 80 73 71 61 58 58 59 63 62 61 62 67 63 68 68 62 61 56 55 62 53 49 46 41 41 37 53 43 36 57 27 27
215 233 191 227 235 203 287 289 316 282 156 245 330 312 279 269 254 243 217 207 223 221 221 219 198 188 184 182 171 161 162 162 169 170 170 165 156 146 134 136 141 137 132 127 111 109 102 102 99 99 96 97 100 98 102 97 99 98 88 97 86 91 103 88 83 73 69 70 62 57 54 59 61 66 60 63 67 64 63 67 67 61 57 52 62 64 52 49 40 38 40 39 46 60 30 31 27
244 181 179 190 218 223 190 256 295 331 323 13 320 300 282 250 257 257 241 348 119 183 169 195 196 193 174 153 159 169 168 167 164 167 170 165 157 156 150 145 143 138 135 122 121 118 120 119 112 110 111 109 110 116 114 116 110 99 100 94 96 91 73 77 82 66 62 70 73 56 52 56 63 65 62 61 65 66 63 63 65 63 63 54 59 64 59 54 50 47 42 49 41 67 49 33 22
257 227 191 204 193 220 252 28 72 19 325 282 143 330 282 268 243 255 238 98 208 231 187 207 191 171 163 174 174 168 164 169 167 170 173 168 161 150 144 148 146 136 121 120 122 120 122 121 117 113 112 115 118 119 122 120 119 123 124 118 108 98 88 75 79 94 82 72 75 78 62 53 60 62 60 61 62 64 64 62 64 65 62 58 56 64 62 54 45 46 36 52 50 35 86 51 28
200 266 194 208 212 218 207 191 65 284 254 291 113 203 282 297 273 249 206 192 217 223 217 213 189 186 184 177 170 171 166 164 161 161 166 164 166 152 151 156 152 137 127 127 118 119 118 123 122 123 125 124 126 128 124 117 107 104 108 108 112 114 112 87 96 90 95 91 85 72 67 57 54 64 58 59 60 62 66 62 64 65 64 63 58 62 59 57 53 50 41 50 49 47 48 66 46
233 245 149 192 200 208 221 208 194 237 230 307 23 116 270 291 253 228 214 206 218 227 234 221 211 198 188 176 172 171 169 167 165 170 170 169 167 162 159 157 151 143 134 124 123 123 127 129 126 127 128 128 130 123 109 114 115 115 110 105 104 106 108 120 115 104 92 93 81 73 70 61 56 57 64 60 61 62 65 65 64 66 67 60 64 63 65 59 59 50 53 54 57 51 54 70 65
217 256 140 126 178 183 116 138 144 209 15 292 217 18 312 243 273 334 155 205 250 240 230 223 212 195 190 182 179 176 172 169 165 167 173 171 168 165 155 152 147 137 134 134 134 133 125 119 114 115 116 119 120 117 114 107 112 118 118 119 109 105 111 112 111 100 95 90 86 76 73 68 65 59 59 65 62 64 65 69 66 66 65 61 62 64 61 59 59 57 47 47 50 50 51 59 68
257 142 82 76 71 67 91 93 71 340 28 250 181 175 225 276 220 147 2 232 237 236 231 226 205 193 188 186 183 173 164 164 167 167 167 167 164 156 149 139 139 140 137 131 128 127 123 120 115 113 115 118 121 117 117 116 117 123 122 126 122 123 120 110 105 103 97 95 92 86 80 76 71 69 62 62 67 65 68 67 68 65 66 64 61 63 62 58 54 58 55 59 53 59 43 52 66
130 73 65 29 36 30 7 66 89 32 255 246 175 195 169 282 260 174 148 209 206 227 253 217 177 187 193 191 179 175 168 167 166 161 164 160 155 144 146 146 143 137 137 132 130 132 131 126 124 115 122 120 121 125 125 126 126 128 129 130 127 127 125 122 118 109 111 104 102 97 93 92 84 81 80 70 67 69 70 66 67 66 64 65 64 60 60 65 61 63 59 58 55 57 50 54 52
131 101 117 60 345 16 35 349 50 158 264 174 187 185 178 223 301 262 224 275 246 195 220 208 188 190 190 185 181 179 170 167 163 159 160 153 147 149 148 147 150 148 140 136 137 134 133 132 126 120 121 124 126 127 125 127 128 129 128 130 127 129 130 130 127 128 128 122 120 115 113 101 89 84 78 76 64 63 72 70 70 72 65 63 62 66 63 65 67 66 59 57 54 53 51 58 61
94 109 93 143 237 41 323 43 258 201 241 243 211 174 306 239 234 218 273 263 270 220 213 206 190 189 183 181 178 176 171 165 168 165 160 163 163 161 160 156 150 156 153 146 147 141 138 137 136 129 133 134 133 133 130 132 133 137 137 132 128 128 128 128 129 127 137 129 130 125 119 108 107 89 77 83 77 77 84 82 74 73 71 65 71 67 63 64 67 67 67 63 60 51 47 55 59
143 146 152 140 195 199 255 240 244 292 298 265 168 158 239 325 284 228 240 240 217 265 283 222 179 180 181 179 174 171 174 172 171 165 166 169 167 167 162 160 157 156 155 151 151 146 145 143 142 133 139 137 134 132 133 133 135 136 134 132 130 131 129 130 132 131 133 126 127 122 121 120 111 112 111 101 112 100 83 87 89 85 84 78 73 71 66 63 69 76 73 67 57 46 46 54 66
198 133 159 189 163 155 211 190 212 222 226 291 284 114 236 122 240 288 272 314 300 285 276 213 180 177 170 160 153 153 163 174 169 172 174 174 172 167 164 163 161 161 158 155 154 151 146 146 143 137 137 144 139 139 136 134 134 132 128 126 125 126 128 125 125 126 127 124 120 114 111 111 114 119 111 117 102 93 93 87 84 82 75 71 65 64 61 62 68 77 73 68 56 45 49 50 49
226 170 52 96 216 139 236 189 188 251 334 322 204 206 191 194 238 293 305 312 15 0 64 124 138 139 141 152 167 172 174 172 171 172 175 176 170 165 161 164 164 164 162 158 157 154 150 150 145 144 143 147 144 141 140 136 132 127 125 123 123 121 118 115 112 109 107 112 116 116 117 115 116 115 108 104 96 98 96 90 82 81 77 73 72 74 73 71 67 77 70 63 56 38 51 48 34
208 117 204 207 186 158 265 11 16 104 27 253 138 282 284 301 273 209 211 297 309 17 142 153 162 159 160 171 173 175 175 172 173 177 177 173 168 171 168 166 165 165 166 165 163 161 155 150 148 144 143 146 146 143 139 135 130 125 122 121 124 124 126 127 125 120 115 109 110 114 117 121 115 110 111 104 104 94 94 94 91 86 81 82 79 71 72 73 75 79 82 69 57 39 53 48 33
96 185 233 95 65 109 142 229 350 80 227 273 153 233 273 101 274 77 148 208 241 257 212 192 172 170 176 184 181 180 178 175 174 173 174 175 174 170 167 169 170 169 164 161 162 159 154 151 150 147 149 150 150 143 139 136 131 125 125 123 120 124 124 120 119 120 119 117 115 115 117 114 118 119 112 109 104 102 94 92 96 94 89 81 77 72 71 72 78 77 82 76 71 58 48 35 32
146 190 209 137 242 249 259 93 249 231 246 271 269 243 250 197 237 106 235 215 221 226 212 188 191 192 197 187 182 174 167 165 172 175 175 177 175 174 171 168 166 168 167 160 155 150 147 146 148 149 150 151 147 142 133 125 124 125 128 128 128 122 119 115 115 117 121 123 126 125 121 123 115 114 113 112 108 105 102 100 103 97 88 85 78 74 73 69 71 72 61 64 52 57 53 37 11
39 67 179 174 100 170 136 198 178 139 265 10 279 79 264 163 216 187 210 203 211 207 194 211 202 199 191 184 177 176 179 181 179 179 179 177 176 173 169 166 167 167 163 158 150 145 146 146 147 145 138 140 139 136 135 129 127 126 123 118 114 118 119 122 126 129 127 127 129 128 129 123 124 119 117 115 112 115 115 110 101 101 97 92 81 68 67 67 65 67 65 56 46 63 51 47 8
183 114 206 194 95 250 122 310 170 168 192 215 285 297 262 217 195 180 199 200 210 193 200 207 205 202 195 184 179 182 183 183 182 179 175 175 171 166 161 161 158 153 152 150 153 153 149 147 151 153 150 151 146 143 137 134 130 131 131 131 131 127 124 122 122 123 123 126 127 126 124 127 119 121 127 119 119 121 116 114 111 104 96 86 75 67 60 66 64 59 50 69 54 65 68 30 50
185 178 195 182 153 164 172 253 100 164 129 246 192 255 273 220 21 203 192 210 206 202 199 202 204 197 189 186 185 184 182 184 180 178 173 170 164 157 152 150 150 153 158 155 153 148 151 157 157 154 152 154 148 147 143 139 136 136 136 133 129 127 126 126 124 124 125 130 132 129 133 125 123 131 126 126 120 119 117 117 109 95 90 84 77 72 63 65 69 64 49 64 68 64 73 29 44